Flag for U.S.A. Weather past 2 weeks in Antioch, California, U.S.A.

Now
55 °F

Clear.


Feels Like: 54 °F
Forecast: 48 / 69 °F
Wind: 5 mph from North

Location: Buchanan Field

Current Time: Apr 1, 2015 at 1:03:55 AM

Latest Report: Mar 31, 2015 at 11:53 PM


Visibility: 10 mi

Pressure: 30.15 "Hg

Humidity: 57%

Dew point: 40 °F

Location of AntiochLocation

Historic Weather in Antioch — Graph

°F

Antioch temperature yesterday

Maximum temperature yesterday: 71 °F (at 2:53 PM)
Minimum temperature yesterday: 55 °F (at 3:53 AM)
Average temperature yesterday: 62 °F

Past Weeks' High & Low Weather Summary

 TemperatureHumidityPressure
High82 °F (Mar 29, 1:53 PM)93% (Mar 23, 5:53 AM)30.27 "Hg (Mar 23, 5:53 AM)
Low48 °F (Mar 19, 6:53 AM)20% (Mar 19, 12:53 PM)29.92 "Hg (Mar 19, 6:53 PM)
Average62 °F60%30.07 "Hg
* Reported Mar 16 11:53 PM — Mar 31 11:53 PM, Antioch, Weather by CustomWeather, © 2015

Note: Actual official high and low records may vary slightly from our data, if they occured in-between our weather recording intervals... More about our weather records

Advertising

Antioch weather history for previous 24 hours

 ConditionsComfort  
Time TempWeatherWind HumidityBarometerVisibility
11:53 PM
Tue, Mar 31
55 °FClear.5 mph57%30.15 "Hg10 mi
10:53 PM56 °FClear.8 mph58%30.14 "Hg10 mi
9:53 PM58 °FClear.9 mph51%30.12 "Hg10 mi
8:53 PM61 °FClear.13 mph44%30.10 "Hg10 mi
7:53 PM63 °FSunny.15 mph40%30.07 "Hg10 mi
6:53 PM66 °FSunny.16 mph34%30.06 "Hg10 mi
5:53 PM69 °FSunny.21 mph31%30.06 "Hg10 mi
4:53 PM69 °FSunny.17 mph33%30.06 "Hg10 mi
3:53 PM70 °FSunny.25 mph31%30.07 "Hg10 mi
2:53 PM71 °FSunny.18 mph28%30.08 "Hg10 mi
1:53 PM70 °FSunny.15 mph35%30.10 "Hg10 mi
12:53 PM68 °FSunny.18 mph40%30.11 "Hg10 mi
11:53 AM66 °FSunny.15 mph49%30.12 "Hg10 mi
10:53 AM64 °FPassing clouds.12 mph54%30.12 "Hg10 mi
9:53 AM62 °FPassing clouds.10 mph60%30.11 "Hg10 mi
8:53 AM60 °FScattered clouds.12 mph67%30.10 "Hg10 mi
7:53 AM57 °FClear.6 mph67%30.08 "Hg10 mi
6:53 AM56 °FClear.9 mph67%30.05 "Hg10 mi
5:53 AM55 °FClear.7 mph69%30.03 "Hg10 mi
4:53 AM55 °FClear.8 mph69%30.02 "Hg10 mi
3:53 AM55 °FClear.6 mph69%30.01 "Hg10 mi
2:53 AM56 °FClear.10 mph67%30.01 "Hg10 mi
1:53 AM57 °FClear.12 mph62%30.02 "Hg10 mi
Weather by CustomWeather, © 2015

See weather overviewHow to use our weather pages